Bellefonte, PA

3:50 PM EST on February 20, 2017 (GMT -0500)
University Park

Weather History for KUNV - September, 2013

Change the Weather History Date:

Friday, September 13, 2013

  Actual Average Record
Temperature  
Mean Temperature 60 °F -  
Max Temperature 68 °F 74 °F 93 °F (1952)
Min Temperature 52 °F 52 °F 35 °F (1985)
Degree Days  
Heating Degree Days 5    
Growing Degree Days 10 (Base 50)    
Moisture  
Dew Point 51 °F    
Average Humidity 72    
Maximum Humidity 95    
Minimum Humidity 43    
Precipitation  
Precipitation 0.00 in - - ()
Sea Level Pressure  
Sea Level Pressure 29.86 in    
Wind  
Wind Speed 5 mph (NW)    
Max Wind Speed 14 mph    
Max Gust Speed 22 mph    
Visibility 10 miles    
Events Rain    
Averages and records for this station are not official NWS values.
T = Trace of Precipitation, MM = Missing Value Source: NWS Daily Summary

Daily Weather History Graph

Daily Weather History Graph

Search for Another Location

Airport or City:

Trip Planner

Search our weather history database for the weather conditions in past years. The results will help you decide how hot, cold, wet, or windy it might be!

Date:

Astronomy

Sep. 13, 2013 Rise Set
Actual Time 6:50 AM EDT 7:23 PM EDT
Civil Twilight 6:22 AM EDT 7:50 PM EDT
Nautical Twilight 5:50 AM EDT 8:23 PM EDT
Astronomical Twilight 5:16 AM EDT 8:56 PM EDT
Moon 3:13 PM EDT (9/13) 12:15 AM EDT (9/13)
Length of Visible Light 13h 28m
Length of Day
12h 33m
First Quarter, 61% of the Moon is Illuminated
Sep 13
First Quarter
Sep 19
Full
Sep 26
Last Quarter
Oct 4
New
Oct 11
First Quarter

Hourly Weather History & Observations

Time (EDT) Temp. Dew Point Humidity Pressure Visibility Wind Dir Wind Speed Gust Speed Precip Events Conditions
12:15 AM 63.7 °F 55.8 °F 75% 29.80 in 10.0 mi North 4.6 mph - N/A   Scattered Clouds
12:35 AM 63.5 °F 56.3 °F 77% 29.80 in 10.0 mi Calm Calm - N/A   Clear
12:55 AM 63.3 °F 56.3 °F 78% 29.80 in 10.0 mi West 3.5 mph - N/A   Clear
1:15 AM 63.1 °F 56.5 °F 79% 29.80 in 10.0 mi West 3.5 mph - N/A   Clear
1:35 AM 62.1 °F 56.3 °F 81% 29.80 in 10.0 mi West 4.6 mph - N/A   Clear
1:55 AM 61.0 °F 56.5 °F 85% 29.80 in 10.0 mi West 4.6 mph - N/A   Clear
2:15 AM 61.7 °F 56.3 °F 82% 29.80 in 10.0 mi WNW 3.5 mph - N/A   Clear
2:35 AM 61.7 °F 56.5 °F 83% 29.80 in 10.0 mi WNW 5.8 mph - N/A   Clear
2:55 AM 61.5 °F 56.5 °F 83% 29.80 in 10.0 mi WNW 5.8 mph - N/A   Clear
3:15 AM 62.1 °F 56.5 °F 82% 29.81 in 10.0 mi WNW 4.6 mph - N/A   Scattered Clouds
3:35 AM 62.6 °F 56.1 °F 79% 29.80 in 10.0 mi Calm Calm - N/A   Mostly Cloudy
3:55 AM 61.2 °F 56.7 °F 85% 29.80 in 10.0 mi Calm Calm - N/A   Mostly Cloudy
4:15 AM 61.3 °F 57.0 °F 86% 29.80 in 10.0 mi WNW 3.5 mph - N/A Rain Light Rain
4:35 AM 61.0 °F 55.9 °F 83% 29.80 in 10.0 mi Calm Calm - N/A Rain Rain
4:55 AM 59.9 °F 57.2 °F 91% 29.79 in 10.0 mi Calm Calm - N/A   Drizzle
5:15 AM 59.0 °F 57.6 °F 95% 29.78 in 10.0 mi Calm Calm - N/A   Light Drizzle
5:35 AM 59.5 °F 57.6 °F 93% 29.80 in 10.0 mi West 4.6 mph - N/A   Overcast
5:53 AM 59.0 °F 57.2 °F 94% 29.80 in 10.0 mi Calm Calm - N/A   Overcast
6:53 AM 59.0 °F 55.4 °F 88% 29.80 in 10.0 mi NW 5.8 mph - N/A   Scattered Clouds
7:53 AM 59.0 °F 53.6 °F 82% 29.83 in 10.0 mi NW 5.8 mph - N/A   Scattered Clouds
8:53 AM 62.6 °F 55.4 °F 77% 29.84 in 10.0 mi West 9.2 mph - N/A   Scattered Clouds
9:53 AM 62.6 °F 53.6 °F 72% 29.84 in 10.0 mi NW 13.8 mph - N/A   Scattered Clouds
10:53 AM 62.6 °F 50.0 °F 63% 29.85 in 10.0 mi NW 11.5 mph - N/A   Overcast
11:53 AM 62.6 °F 50.0 °F 63% 29.86 in 10.0 mi WNW 11.5 mph - N/A   Overcast
12:53 PM 64.4 °F 48.2 °F 56% 29.85 in 10.0 mi WNW 11.5 mph - N/A   Mostly Cloudy
1:53 PM 66.2 °F 46.4 °F 49% 29.84 in 10.0 mi WNW 11.5 mph - N/A   Mostly Cloudy
2:53 PM 68.0 °F 46.4 °F 46% 29.83 in 10.0 mi NW 8.1 mph - N/A   Mostly Cloudy
3:53 PM 66.2 °F 42.8 °F 43% 29.84 in 10.0 mi NW 10.4 mph 18.4 mph N/A   Mostly Cloudy
4:53 PM 68.0 °F 44.6 °F 43% 29.85 in 10.0 mi NW 11.5 mph - N/A   Mostly Cloudy
5:53 PM 66.2 °F 44.6 °F 46% 29.87 in 10.0 mi NW 10.4 mph - N/A   Mostly Cloudy
6:53 PM 59.0 °F 41.0 °F 51% 29.91 in 10.0 mi NNW 12.7 mph 20.7 mph N/A   Scattered Clouds
7:53 PM 57.2 °F 42.8 °F 59% 29.93 in 10.0 mi NW 11.5 mph - N/A   Scattered Clouds
8:53 PM 53.6 °F 42.8 °F 67% 29.95 in 10.0 mi NNW 9.2 mph - N/A   Partly Cloudy
9:15 PM 54.0 °F 43.3 °F 67% 29.96 in 10.0 mi NNW 10.4 mph 17.3 mph N/A   Scattered Clouds
9:35 PM 53.8 °F 43.7 °F 69% 29.97 in 10.0 mi NNW 10.4 mph - N/A   Scattered Clouds
9:55 PM 54.1 °F 43.3 °F 67% 29.97 in 10.0 mi NNW 11.5 mph 21.9 mph N/A   Mostly Cloudy
10:15 PM 53.8 °F 43.7 °F 69% 29.98 in 10.0 mi North 10.4 mph - N/A   Overcast
10:35 PM 53.6 °F 43.2 °F 68% 29.98 in 10.0 mi North 8.1 mph 16.1 mph N/A   Overcast
10:55 PM 53.2 °F 43.3 °F 69% 29.99 in 10.0 mi NNW 6.9 mph - N/A   Overcast
11:15 PM 53.1 °F 43.2 °F 69% 29.99 in 10.0 mi NNW 8.1 mph - N/A   Overcast
11:35 PM 52.9 °F 43.2 °F 70% 29.99 in 10.0 mi NNW 9.2 mph 16.1 mph N/A   Overcast
11:55 PM 52.7 °F 43.2 °F 70% 29.99 in 10.0 mi North 10.4 mph - N/A   Overcast